Карточка аэропорта UUBW

Внимание!
Информация на этой странице в стадии наполнения.
Если вы не увидели какой-то информации, или заметили неточность - пожалуйста сообщите нам!
Спасибо!
Команда RU-STAFF
Название аэропортаЖуковский
Название аэропорта (англ.)Zhukovsky
Превышение1325 ft. (403.9 m.)
Координаты55°33.168', 38°8.9820000000002'
Высота перехода10000 ft
Эшелон переходаQNH>=1013hPa:FL110; QNH<1013hPa:FL120; QNH<977hPa:FL130
Коды ответчика
Зона ОрВДМосква РПИ (UUWV)
Данные METARUUBW 221130Z 07004MPS CAVOK 22/02 Q1021 R30/010060 NOSIG RMK QFE755
Проноз погоды (TAF)UUBW 221051Z 2212/2312 02003MPS CAVOK TX24/2212Z TN08/2302Z BECMG 2304/2306 08005MPS
NOTAMshow/hide NOTAM
AWOS   TABLE

Информация о ВПП

ВПП Длина ВПП (м.) Покрытие Курс ВПП Частота ILS
124600Цементобетон121 
304600Цементобетон301 

Диспетчерские позиции


Сценарии

Сценарий
Нет результатов.


Спутниковое изображение